EW8917 Weather Reports


Display with metric or nautical units.
time (UTC)temp
F
wind
direction
speed
MPH
gust
MPH
rain 1hr
in
rain 24hr
in
rain mn
in
humidity
%
barometer
mb
20190322143704 47 118 7.0 12.0 0.00 0.00 0.00 73 1018.0
20190322143204 48 112 9.0 12.0 0.00 0.00 0.00 69 1018.0
20190322142704 48 150 7.0 15.0 0.00 0.00 0.00 67 1017.6
20190322142204 49 158 7.0 10.0 0.00 0.00 0.00 64 1017.5
20190322141705 49 128 7.0 10.0 0.00 0.00 0.00 61 1017.5
20190322141204 49 91 7.0 13.0 0.00 0.00 0.00 58 1017.9
20190322140704 49 108 5.0 9.0 0.00 0.00 0.00 58 1017.9
20190322140204 49 112 5.0 9.0 0.00 0.00 0.00 58 1018.0
20190322135705 49 126 5.0 10.0 0.00 0.00 0.00 58 1018.0
20190322135204 49 119 5.0 10.0 0.00 0.00 0.00 58 1018.0
20190322134704 49 177 6.0 10.0 0.00 0.00 0.00 58 1018.0
20190322134205 49 134 5.0 10.0 0.00 0.00 0.00 58 1018.0
20190322133704 49 174 7.0 10.0 0.00 0.00 0.00 58 1018.0
20190322133204 49 133 5.0 10.0 0.00 0.00 0.00 58 1018.0
20190322132705 49 135 7.0 12.0 0.00 0.00 0.00 58 1018.2
20190322132204 49 105 4.0 9.0 0.00 0.00 0.00 57 1018.2
20190322131703 49 132 5.0 8.0 0.00 0.00 0.00 57 1018.2
20190322131204 49 178 6.0 8.0 0.00 0.00 0.00 57 1018.3
20190322130704 49 183 6.0 8.0 0.00 0.00 0.00 57 1018.3
20190322130205 49 159 6.0 8.0 0.00 0.00 0.00 56 1018.1
20190322125704 49 127 3.0 9.0 0.00 0.00 0.00 56 1018.1
20190322125204 49 123 6.0 13.0 0.00 0.00 0.00 56 1018.1
20190322124704 49 124 5.0 8.0 0.00 0.00 0.00 57 1018.1
20190322124204 49 144 4.0 8.0 0.00 0.00 0.00 57 1018.1
20190322123704 49 151 4.0 9.0 0.00 0.00 0.00 58 1018.0
20190322123204 49 122 5.0 9.0 0.00 0.00 0.00 59 1018.0
20190322122704 49 141 5.0 9.0 0.00 0.00 0.00 59 1018.1
20190322122204 49 123 6.0 7.0 0.00 0.00 0.00 59 1018.1
20190322121704 49 148 4.0 9.0 0.00 0.00 0.00 59 1018.1
20190322121204 49 146 3.0 6.0 0.00 0.00 0.00 59 1018.2
20190322120704 49 158 5.0 7.0 0.00 0.00 0.00 59 1018.2
20190322120204 49 144 6.0 7.0 0.00 0.00 0.00 58 1018.1
20190322115705 49 162 6.0 10.0 0.00 0.00 0.00 58 1018.1
20190322115204 50 158 4.0 8.0 0.00 0.00 0.00 57 1018.1
20190322114704 50 145 4.0 7.0 0.00 0.00 0.00 56 1018.0
20190322114204 50 123 6.0 9.0 0.00 0.00 0.00 56 1018.0
20190322113705 50 124 4.0 9.0 0.00 0.00 0.00 56 1018.0
20190322113204 50 127 4.0 8.0 0.00 0.00 0.00 56 1018.0
20190322112704 50 143 4.0 7.0 0.00 0.00 0.00 56 1017.8
20190322112205 50 164 6.0 8.0 0.00 0.00 0.00 56 1017.8
20190322111703 50 158 6.0 8.0 0.00 0.00 0.00 56 1017.8
20190322111204 50 142 4.0 6.0 0.00 0.00 0.00 56 1017.9
20190322110704 50 158 5.0 8.0 0.00 0.00 0.00 55 1017.9
20190322110203 50 144 5.0 8.0 0.00 0.00 0.00 55 1017.6
20190322105705 50 157 6.0 9.0 0.00 0.00 0.00 55 1017.6
20190322105204 50 128 6.0 9.0 0.00 0.00 0.00 55 1017.7
20190322104704 50 148 7.0 9.0 0.00 0.00 0.00 55 1017.8
20190322104204 50 158 8.0 8.0 0.00 0.00 0.00 55 1017.8
20190322103704 50 158 9.0 13.0 0.00 0.00 0.00 55 1017.8
20190322103204 50 146 6.0 13.0 0.00 0.00 0.00 55 1017.8
20190322102703 50 120 5.0 12.0 0.00 0.00 0.00 55 1018.3
20190322102204 50 148 5.0 10.0 0.00 0.00 0.00 55 1018.3
20190322101704 50 153 5.0 10.0 0.00 0.00 0.00 54 1018.3
20190322101204 50 169 5.0 8.0 0.00 0.00 0.00 54 1018.2
20190322100704 50 115 7.0 9.0 0.00 0.00 0.00 54 1018.2
20190322100204 50 120 7.0 9.0 0.00 0.00 0.00 54 1018.4
20190322095703 50 157 6.0 9.0 0.00 0.00 0.00 54 1018.4
20190322095204 50 156 4.0 7.0 0.00 0.00 0.00 54 1018.4
20190322094704 50 125 4.0 9.0 0.00 0.00 0.00 54 1018.4
20190322094204 50 149 5.0 7.0 0.00 0.00 0.00 54 1018.4
20190322093704 50 177 4.0 9.0 0.00 0.00 0.00 54 1018.5
20190322093203 50 132 5.0 9.0 0.00 0.00 0.00 53 1018.5
20190322092704 50 162 5.0 8.0 0.00 0.00 0.00 53 1018.4
20190322092205 50 114 6.0 7.0 0.00 0.00 0.00 53 1018.4
20190322091704 50 136 7.0 10.0 0.00 0.00 0.00 53 1018.4
20190322091204 49 176 5.0 8.0 0.00 0.00 0.00 53 1018.4
20190322090704 49 174 5.0 9.0 0.00 0.00 0.00 53 1018.4
20190322090204 49 143 7.0 10.0 0.00 0.00 0.00 53 1018.6
20190322085705 49 144 7.0 10.0 0.00 0.00 0.00 53 1018.6
20190322085204 50 142 7.0 10.0 0.00 0.00 0.00 53 1018.6
20190322084704 49 147 7.0 10.0 0.00 0.00 0.00 53 1018.6
20190322084204 49 136 6.0 13.0 0.00 0.00 0.00 53 1018.6
20190322083704 49 145 7.0 9.0 0.00 0.00 0.00 53 1018.9
20190322083204 49 142 5.0 7.0 0.00 0.00 0.00 54 1018.9
20190322082705 49 177 6.0 10.0 0.00 0.05 0.00 55 1019.0
20190322082204 49 151 5.0 8.0 0.00 0.05 0.00 55 1019.0
20190322081704 49 112 5.0 8.0 0.00 0.05 0.00 55 1019.0
20190322081204 49 174 5.0 8.0 0.00 0.05 0.00 55 1019.2
20190322080704 49 158 5.0 8.0 0.00 0.05 0.00 54 1019.2
20190322080204 49 147 6.0 8.0 0.00 0.05 0.00 53 1019.2
20190322075704 49 152 5.0 8.0 0.00 0.05 0.00 53 1019.2
20190322075204 49 158 5.0 7.0 0.00 0.05 0.00 52 1019.2
20190322074704 49 152 3.0 7.0 0.00 0.05 0.00 52 1019.2
20190322074203 49 135 3.0 6.0 0.00 0.05 0.00 52 1019.2
20190322073703 49 166 3.0 8.0 0.00 0.05 0.00 52 1019.1
20190322073204 49 156 4.0 7.0 0.00 0.05 0.00 52 1019.1
20190322072704 49 161 3.0 5.0 0.00 0.05 0.00 52 1019.3
20190322072203 49 165 5.0 6.0 0.00 0.05 0.00 52 1019.3
20190322071704 49 141 4.0 6.0 0.00 0.05 0.00 52 1019.3
20190322071204 49 143 4.0 7.0 0.00 0.05 0.00 52 1019.3
20190322070704 49 129 2.0 6.0 0.00 0.05 0.00 51 1019.3
20190322070204 50 158 4.0 6.0 0.00 0.05 0.00 51 1019.4
20190322065704 50 139 5.0 7.0 0.00 0.05 0.00 51 1019.4
20190322065204 50 140 5.0 6.0 0.00 0.05 0.00 50 1019.4
20190322064705 50 154 5.0 7.0 0.00 0.05 0.00 50 1019.4
20190322064204 51 135 6.0 8.0 0.00 0.05 0.00 50 1019.4
20190322063704 51 140 5.0 10.0 0.00 0.05 0.00 50 1019.6
20190322063205 51 137 6.0 8.0 0.00 0.05 0.00 50 1019.6
20190322062704 51 164 4.0 7.0 0.00 0.05 0.00 50 1019.7
20190322062204 50 163 6.0 9.0 0.00 0.05 0.00 50 1019.7
20190322061704 50 145 6.0 10.0 0.00 0.05 0.00 51 1019.7
20190322061204 50 125 5.0 8.0 0.00 0.05 0.00 52 1019.9
20190322060704 49 130 4.0 7.0 0.00 0.05 0.00 54 1019.9
20190322060204 49 121 6.0 8.0 0.00 0.05 0.00 54 1020.0
20190322055704 49 153 2.0 6.0 0.00 0.05 0.00 55 1020.0
20190322055204 49 269 3.0 6.0 0.00 0.05 0.00 56 1020.0
20190322054704 48 168 3.0 7.0 0.00 0.05 0.00 57 1020.1
20190322054205 47 125 2.0 3.0 0.00 0.05 0.00 60 1020.1
20190322053704 47 142 1.0 3.0 0.00 0.05 0.00 61 1020.2
20190322053204 46 164 1.0 2.0 0.00 0.05 0.00 63 1020.2
20190322052704 46 157 1.0 2.0 0.00 0.05 0.00 63 1020.3
20190322052204 46 156 1.0 5.0 0.00 0.05 0.00 64 1020.3
20190322051704 46 148 2.0 3.0 0.00 0.05 0.00 64 1020.3
20190322051206 46 166 1.0 5.0 0.00 0.05 0.00 63 1020.4
20190322050704 47 175 3.0 5.0 0.00 0.05 0.00 62 1020.4
20190322050204 48 180 3.0 6.0 0.00 0.05 0.00 59 1020.4
20190322045704 49 147 3.0 6.0 0.00 0.05 0.05 55 1020.4
20190322045204 50 164 2.0 5.0 0.00 0.05 0.05 54 1020.4
20190322044704 50 144 1.0 6.0 0.00 0.05 0.05 53 1020.3
20190322044204 50 180 2.0 6.0 0.00 0.05 0.05 53 1020.3
20190322043704 51 158 3.0 7.0 0.00 0.05 0.05 52 1020.4
20190322043205 51 232 3.0 6.0 0.00 0.05 0.05 52 1020.4
20190322042704 51 196 2.0 6.0 0.00 0.05 0.05 52 1020.3
20190322042204 51 135 1.0 3.0 0.00 0.05 0.05 51 1020.3
20190322041708 51 170 2.0 3.0 0.00 0.05 0.05 51 1020.3
20190322041205 51 144 1.0 2.0 0.00 0.05 0.05 51 1020.2
20190322040704 51 145 2.0 6.0 0.00 0.05 0.05 51 1020.2
20190322040204 52 146 2.0 6.0 0.00 0.05 0.05 50 1019.9
20190322035704 52 189 3.0 7.0 0.00 0.05 0.05 49 1019.9
20190322035204 52 139 3.0 5.0 0.00 0.05 0.05 49 1020.0
20190322034704 52 135 3.0 7.0 0.00 0.05 0.05 48 1020.1
20190322034204 53 145 3.0 6.0 0.00 0.05 0.05 48 1020.1
20190322033704 53 151 3.0 6.0 0.00 0.05 0.05 48 1020.0
20190322033204 53 146 3.0 6.0 0.00 0.05 0.05 47 1020.0
20190322032704 53 136 2.0 5.0 0.00 0.05 0.05 47 1019.9
20190322032204 53 155 3.0 6.0 0.00 0.05 0.05 47 1019.9
20190322031704 54 159 4.0 6.0 0.00 0.05 0.05 47 1019.9
20190322031204 54 145 2.0 3.0 0.00 0.05 0.05 48 1020.1
20190322030704 54 115 2.0 3.0 0.00 0.05 0.05 49 1020.1
20190322030204 54 127 3.0 5.0 0.00 0.05 0.05 49 1019.9
20190322025704 54 122 2.0 6.0 0.00 0.05 0.05 49 1019.9
20190322025204 55 158 3.0 6.0 0.00 0.05 0.05 48 1019.9
20190322024704 55 123 3.0 6.0 0.00 0.05 0.05 48 1019.7
20190322024204 55 135 3.0 5.0 0.00 0.05 0.05 48 1019.7
20190322023704 55 140 3.0 6.0 0.00 0.05 0.05 48 1019.6
20190322023204 55 122 3.0 7.0 0.00 0.05 0.05 48 1019.6
20190322022704 55 141 5.0 7.0 0.00 0.05 0.05 47 1019.8
20190322022204 56 139 3.0 7.0 0.00 0.05 0.05 47 1019.8
20190322021704 56 144 3.0 5.0 0.00 0.05 0.05 46 1019.8
20190322021204 56 117 2.0 3.0 0.00 0.05 0.05 46 1019.8
20190322020704 56 120 2.0 5.0 0.00 0.05 0.05 45 1019.8
20190322020204 56 118 3.0 6.0 0.00 0.05 0.05 44 1019.5
20190322015704 57 160 3.0 6.0 0.00 0.05 0.05 44 1019.5
20190322015204 57 128 3.0 5.0 0.00 0.05 0.05 44 1019.5
20190322014704 57 157 3.0 5.0 0.00 0.05 0.05 44 1019.4
20190322014204 57 123 4.0 5.0 0.00 0.05 0.05 43 1019.4
20190322013704 57 118 2.0 3.0 0.00 0.05 0.05 43 1019.6
20190322013204 58 139 2.0 5.0 0.00 0.05 0.05 42 1019.6
20190322012704 58 139 2.0 3.0 0.00 0.05 0.05 41 1019.4
20190322012204 58 135 2.0 3.0 0.00 0.05 0.05 41 1019.4
20190322011703 58 135 2.0 3.0 0.00 0.05 0.05 40 1019.4
20190322011204 59 129 1.0 2.0 0.00 0.05 0.05 40 1019.5
20190322010704 59 119 3.0 5.0 0.00 0.05 0.05 40 1019.5
20190322010204 59 146 1.0 3.0 0.00 0.05 0.05 40 1019.3
20190322005704 60 135 2.0 5.0 0.00 0.05 0.05 39 1019.3
20190322005205 60 158 3.0 5.0 0.00 0.05 0.05 38 1019.3
20190322004705 61 112 2.0 5.0 0.00 0.05 0.05 38 1019.3
20190322004204 61 159 3.0 6.0 0.00 0.05 0.05 37 1019.3
20190322003704 62 154 2.0 5.0 0.00 0.05 0.05 36 1019.4
20190322003204 62 165 1.0 5.0 0.00 0.05 0.05 35 1019.4
20190322002703 63 162 5.0 6.0 0.00 0.05 0.05 34 1019.4
20190322002204 64 130 4.0 5.0 0.00 0.05 0.05 33 1019.4
20190322001704 64 138 2.0 7.0 0.00 0.05 0.05 33 1019.4
20190322001204 64 144 4.0 7.0 0.00 0.05 0.05 33 1019.2
20190322000703 64 183 5.0 8.0 0.00 0.05 0.05 33 1019.2
20190322000206 64 165 5.0 8.0 0.00 0.05 0.05 33 1019.1
20190321235704 65 129 5.0 8.0 0.00 0.05 0.05 33 1019.1
20190321235204 65 158 5.0 7.0 0.00 0.05 0.05 32 1019.0
20190321234704 66 105 5.0 7.0 0.00 0.05 0.05 32 1019.0
20190321234204 66 169 5.0 7.0 0.00 0.05 0.05 31 1019.0
20190321233705 66 128 3.0 6.0 0.00 0.05 0.05 30 1019.3
20190321233205 67 120 6.0 7.0 0.00 0.05 0.05 30 1019.3
20190321232704 66 110 4.0 7.0 0.00 0.05 0.05 30 1019.4
20190321232204 67 99 6.0 9.0 0.00 0.05 0.05 30 1019.4
20190321231704 67 155 3.0 7.0 0.00 0.05 0.05 30 1019.4
20190321231204 66 180 5.0 8.0 0.00 0.05 0.05 30 1019.6
20190321230704 65 133 4.0 6.0 0.00 0.05 0.05 31 1019.6
20190321230203 64 141 4.0 8.0 0.00 0.05 0.05 31 1019.7
20190321225704 64 202 5.0 7.0 0.00 0.05 0.05 32 1019.7
20190321225204 65 135 6.0 7.0 0.00 0.05 0.05 31 1019.7
20190321224704 65 158 3.0 7.0 0.00 0.05 0.05 31 1019.6
20190321224204 65 227 5.0 8.0 0.00 0.05 0.05 31 1019.6
20190321223704 66 147 7.0 8.0 0.00 0.05 0.05 31 1019.7
20190321223204 68 168 5.0 8.0 0.00 0.05 0.05 30 1019.7
20190321222704 70 170 6.0 8.0 0.00 0.05 0.05 29 1019.9
20190321222206 69 158 5.0 7.0 0.00 0.05 0.05 29 1019.9
20190321221704 70 162 3.0 6.0 0.00 0.05 0.05 29 1019.9
20190321221204 69 151 3.0 6.0 0.00 0.05 0.05 30 1020.0
20190321220704 70 170 2.0 6.0 0.00 0.05 0.05 32 1020.0
20190321220204 69 154 3.0 6.0 0.00 0.05 0.05 31 1020.1
20190321215704 67 135 2.0 6.0 0.00 0.05 0.05 33 1020.1
20190321215204 66 112 3.0 3.0 0.00 0.05 0.05 33 1020.2
20190321214704 67 125 3.0 6.0 0.00 0.05 0.05 33 1020.2
20190321214204 66 225 4.0 5.0 0.00 0.05 0.05 34 1020.2
20190321213704 67 171 5.0 6.0 0.00 0.05 0.05 34 1020.4
20190321213204 66 158 2.0 2.0 0.00 0.05 0.05 34 1020.4
20190321212704 66 109 2.0 5.0 0.00 0.05 0.05 35 1020.6
20190321212204 66 158 3.0 5.0 0.00 0.05 0.05 35 1020.6
20190321211704 65 220 3.0 6.0 0.00 0.05 0.05 35 1020.6
20190321211205 65 135 4.0 7.0 0.00 0.05 0.05 35 1020.6
20190321210704 65 170 2.0 6.0 0.00 0.05 0.05 35 1020.6
20190321210204 66 171 5.0 7.0 0.00 0.05 0.05 34 1020.8
20190321205704 67 112 5.0 9.0 0.00 0.05 0.05 33 1020.8
20190321205204 67 180 3.0 6.0 0.00 0.05 0.05 33 1020.8
20190321204704 66 150 2.0 3.0 0.00 0.05 0.05 33 1020.7
20190321203704 67 270 7.0 7.0 0.00 0.05 0.05 31 1021.0
20190321203204 67 135 2.0 5.0 0.00 0.05 0.05 30 1021.0
20190321202704 69 147 3.0 6.0 0.00 0.05 0.05 31 1021.2
20190321202206 69 158 1.0 5.0 0.00 0.05 0.05 29 1021.2
20190321201704 70 112 3.0 6.0 0.00 0.05 0.05 30 1021.2
20190321201204 68 169 3.0 5.0 0.00 0.05 0.05 31 1021.3
20190321200204 69 146 3.0 6.0 0.00 0.05 0.05 31 1021.5
20190321195704 67 124 5.0 6.0 0.00 0.05 0.05 31 1021.5
20190321195204 66 220 2.0 3.0 0.00 0.05 0.05 31 1021.5
20190321194704 66 130 4.0 6.0 0.00 0.05 0.05 32 1021.8
20190321194204 66 186 1.0 5.0 0.00 0.05 0.05 31 1021.8
20190321193704 67 122 3.0 8.0 0.00 0.05 0.05 31 1021.8
20190321193204 67 122 3.0 5.0 0.00 0.05 0.05 30 1021.8
20190321192704 66 145 2.0 5.0 0.00 0.05 0.05 32 1022.2
20190321192204 65 169 3.0 5.0 0.00 0.05 0.05 33 1022.2
20190321191704 63 158 1.0 5.0 0.00 0.05 0.05 34 1022.2
20190321191204 64 181 5.0 7.0 0.00 0.05 0.05 34 1022.3
20190321190704 64 202 4.0 6.0 0.00 0.05 0.05 34 1022.3
20190321190204 64 158 3.0 7.0 0.00 0.05 0.05 35 1022.4
20190321185704 65 169 3.0 3.0 0.00 0.05 0.05 37 1022.4
20190321185204 64 227 2.0 5.0 0.00 0.05 0.05 38 1022.4
20190321184704 64 180 3.0 6.0 0.00 0.05 0.05 39 1022.4
20190321184203 65 158 3.0 5.0 0.00 0.05 0.05 39 1022.4
20190321183703 65 213 3.0 5.0 0.00 0.05 0.05 39 1022.7
20190321183204 64 158 2.0 2.0 0.00 0.05 0.05 39 1022.7
20190321182704 65 270 4.0 6.0 0.00 0.05 0.05 39 1022.8
20190321182204 64 292 5.0 6.0 0.00 0.05 0.05 40 1022.8
20190321181704 63 202 3.0 5.0 0.00 0.05 0.05 41 1022.8
20190321181205 64 248 4.0 6.0 0.00 0.05 0.05 40 1022.8
20190321180704 66 338 3.0 5.0 0.00 0.05 0.05 39 1022.8
20190321180203 64 166 2.0 3.0 0.00 0.05 0.05 39 1023.2
20190321175704 64 229 4.0 6.0 0.00 0.05 0.05 39 1023.2
20190321175204 63 158 1.0 2.0 0.00 0.05 0.05 42 1023.2
20190321174704 62 147 1.0 5.0 0.00 0.05 0.05 37 1023.4
20190321174204 63 181 3.0 6.0 0.00 0.05 0.05 42 1023.4
20190321173704 63 180 4.0 6.0 0.00 0.05 0.05 43 1023.5
20190321173205 62 112 3.0 3.0 0.00 0.05 0.05 44 1023.5
20190321172704 62 215 3.0 5.0 0.00 0.05 0.05 44 1023.6
20190321172204 61 192 2.0 5.0 0.00 0.05 0.05 45 1023.7
20190321171704 62 191 2.0 5.0 0.00 0.05 0.05 45 1023.7
20190321171204 61 172 3.0 5.0 0.00 0.05 0.05 45 1023.7
20190321170704 61 247 2.0 5.0 0.00 0.05 0.05 45 1023.7
20190321170204 60 224 2.0 5.0 0.00 0.05 0.05 45 1023.7
20190321165704 60 215 2.0 5.0 0.00 0.05 0.05 45 1023.7
20190321165204 61 147 3.0 3.0 0.00 0.05 0.05 44 1023.7
20190321164704 60 217 2.0 5.0 0.00 0.05 0.05 44 1023.7
20190321164204 60 202 3.0 5.0 0.00 0.05 0.05 44 1023.7
20190321163704 60 221 2.0 3.0 0.00 0.05 0.05 45 1023.8
20190321163204 58 168 2.0 2.0 0.00 0.05 0.05 46 1023.8
20190321162704 59 158 2.0 3.0 0.00 0.05 0.05 46 1023.7
20190321162204 58 148 2.0 3.0 0.00 0.05 0.05 46 1023.7
20190321161705 57 180 2.0 3.0 0.00 0.05 0.05 47 1023.7
20190321161204 56 134 1.0 2.0 0.00 0.05 0.05 48 1023.9
20190321160704 56 172 0.0 2.0 0.00 0.05 0.05 48 1023.9
20190321160204 56 166 0.0 1.0 0.00 0.05 0.05 48 1023.9
20190321155704 54 135 1.0 2.0 0.00 0.05 0.05 49 1023.9
20190321155204 54 203 1.0 2.0 0.00 0.05 0.05 51 1024.0
20190321154704 53 171 1.0 2.0 0.00 0.05 0.05 50 1024.0
20190321154204 53 112 1.0 2.0 0.00 0.05 0.05 52 1024.0
20190321153704 52 180 1.0 2.0 0.00 0.05 0.05 52 1023.8
20190321153204 51 177 2.0 3.0 0.00 0.05 0.05 53 1023.8
20190321152705 51 143 1.0 5.0 0.00 0.05 0.05 52 1023.9
20190321152204 51 66 2.0 5.0 0.00 0.05 0.05 54 1023.9
20190321151704 50 78 3.0 5.0 0.00 0.05 0.05 53 1023.9
20190321151204 49 90 2.0 2.0 0.00 0.05 0.05 56 1023.8
20190321150704 47 188 1.0 2.0 0.00 0.05 0.05 58 1023.8
20190321150204 48 100 3.0 3.0 0.00 0.05 0.05 57 1023.7
20190321145704 46 226 2.0 3.0 0.00 0.05 0.05 59 1023.7
20190321145203 46 175 1.0 3.0 0.00 0.05 0.05 59 1023.7
20190321144704 45 202 2.0 3.0 0.00 0.05 0.05 61 1023.7
20190321144204 45 229 2.0 3.0 0.00 0.05 0.05 60 1023.7